When you browse on this site, cookies collect data to enhance your experience and personalize the content and advertising you see.
Visit our Privacy Policy to learn more. By continuing to use the site, you agree to this use of cookies and data.
  • In Hungary
  • List of Countries
  • For 7 days
  • Water Temperature
  • Satellite Maps
  • Weather Map
  • News
  • Weather Widgets
  • user-avatar
    Login

    Hourly Weather Tlaxco de Morelos

    Today, 19 February, Tuesday

    Time Temperature Precipitation Wind Pressure Humidity
    00:00 +13°C° 0 mm 2 mps 552 mmHg 40%
    01:00 +12°C° 0 mm 2 mps 551 mmHg 42%
    02:00 +10°C° 0 mm 2 mps 551 mmHg 44%
    03:00 +10°C° 0 mm 2 mps 551 mmHg 44%
    04:00 +9°C° 0 mm 2 mps 550 mmHg 45%
    05:00 +9°C° 0 mm 2 mps 550 mmHg 45%
    06:00 +10°C° 0 mm 3 mps 551 mmHg 44%
    07:00 +12°C° 0 mm 3 mps 552 mmHg 44%
    08:00 +13°C° 0 mm 3 mps 553 mmHg 43%
    09:00 +15°C° 0 mm 4 mps 554 mmHg 36%
    10:00 +17°C° 0 mm 5 mps 555 mmHg 29%
    11:00 +20°C° 0 mm 6 mps 556 mmHg 22%
    12:00 +21°C° 0 mm 6 mps 555 mmHg 19%
    13:00 +22°C° 0 mm 6 mps 555 mmHg 17%
    14:00 +22°C° 0 mm 7 mps 555 mmHg 14%
    15:00 +21°C° 0 mm 6 mps 554 mmHg 16%
    16:00 +19°C° 0 mm 6 mps 553 mmHg 18%
    17:00 +17°C° 0 mm 5 mps 552 mmHg 20%
    18:00 +15°C° 0 mm 4 mps 552 mmHg 25%
    19:00 +14°C° 0 mm 3 mps 551 mmHg 30%
    20:00 +12°C° 0 mm 3 mps 550 mmHg 35%
    21:00 +12°C° 0 mm 2 mps 550 mmHg 39%
    22:00 +12°C° 0 mm 2 mps 550 mmHg 42%
    23:00 +10°C° 0 mm 2 mps 550 mmHg 45%

    Tomorrow, 20 February, Wednesday

    Time Temperature Precipitation Wind Pressure Humidity
    00:00 +10°C° 0 mm 2 mps 549 mmHg 48%
    01:00 +9°C° 0 mm 2 mps 549 mmHg 51%
    02:00 +9°C° 0 mm 2 mps 548 mmHg 54%
    03:00 +8°C° 0 mm 2 mps 548 mmHg 56%
    04:00 +8°C° 0 mm 2 mps 548 mmHg 57%
    05:00 +7°C° 0 mm 2 mps 547 mmHg 59%
    06:00 +9°C° 0 mm 2 mps 549 mmHg 53%
    07:00 +12°C° 0 mm 2 mps 550 mmHg 48%
    08:00 +13°C° 0 mm 2 mps 551 mmHg 42%
    09:00 +16°C° 0 mm 2 mps 552 mmHg 36%
    10:00 +18°C° 0 mm 2 mps 554 mmHg 30%
    11:00 +20°C° 0 mm 2 mps 555 mmHg 24%
    12:00 +21°C° 0 mm 3 mps 554 mmHg 23%
    13:00 +21°C° 0 mm 3 mps 554 mmHg 21%
    14:00 +22°C° 0 mm 4 mps 553 mmHg 20%
    15:00 +20°C° 0 mm 4 mps 553 mmHg 24%
    16:00 +19°C° 0 mm 4 mps 552 mmHg 28%
    17:00 +18°C° 0 mm 4 mps 552 mmHg 32%
    18:00 +16°C° 0 mm 3 mps 551 mmHg 38%
    19:00 +13°C° 0 mm 3 mps 551 mmHg 43%
    20:00 +12°C° 0 mm 2 mps 550 mmHg 49%
    21:00 +12°C° 0 mm 2 mps 550 mmHg 47%
    22:00 +10°C° 0 mm 2 mps 550 mmHg 45%
    23:00 +10°C° 0 mm 2 mps 550 mmHg 43%

    Day after tomorrow, 21 February, Thursday

    Time Temperature Precipitation Wind Pressure Humidity
    00:00 +10°C° 0 mm 2 mps 550 mmHg 47%
    01:00 +9°C° 0 mm 2 mps 549 mmHg 50%
    02:00 +9°C° 0 mm 2 mps 549 mmHg 54%
    03:00 +8°C° 0 mm 2 mps 548 mmHg 57%
    04:00 +8°C° 0 mm 2 mps 548 mmHg 61%
    05:00 +7°C° 0 mm 2 mps 548 mmHg 64%
    06:00 +9°C° 0 mm 2 mps 549 mmHg 58%
    07:00 +12°C° 0 mm 2 mps 551 mmHg 53%
    08:00 +13°C° 0 mm 2 mps 552 mmHg 48%
    09:00 +16°C° 0 mm 3 mps 553 mmHg 39%
    10:00 +18°C° 0 mm 3 mps 554 mmHg 31%
    11:00 +20°C° 0 mm 3 mps 555 mmHg 23%
    12:00 +21°C° 0 mm 3 mps 555 mmHg 21%
    13:00 +22°C° 0 mm 4 mps 555 mmHg 20%
    14:00 +23°C° 0 mm 4 mps 554 mmHg 18%
    15:00 +21°C° 0 mm 4 mps 554 mmHg 21%
    16:00 +20°C° 0 mm 4 mps 553 mmHg 24%
    17:00 +19°C° 0 mm 3 mps 552 mmHg 26%
    18:00 +17°C° 0 mm 3 mps 552 mmHg 29%
    19:00 +14°C° 0 mm 3 mps 551 mmHg 32%
    20:00 +13°C° 0 mm 2 mps 551 mmHg 35%
    21:00 +12°C° 0 mm 2 mps 551 mmHg 37%
    22:00 +12°C° 0 mm 2 mps 551 mmHg 39%
    23:00 +11°C° 0 mm 1 mps 550 mmHg 41%

    22 February, Friday

    Time Temperature Precipitation Wind Pressure Humidity
    00:00 +11°C° 0 mm 1 mps 550 mmHg 44%
    01:00 +11°C° 0 mm 1 mps 550 mmHg 47%
    02:00 +10°C° 0 mm 1 mps 549 mmHg 49%
    03:00 +10°C° 0 mm 1 mps 549 mmHg 51%
    04:00 +10°C° 0 mm 1 mps 549 mmHg 53%
    05:00 +9°C° 0 mm 1 mps 549 mmHg 55%
    06:00 +11°C° 0 mm 1 mps 551 mmHg 48%
    07:00 +13°C° 0 mm 1 mps 552 mmHg 41%
    08:00 +15°C° 0 mm 1 mps 554 mmHg 35%
    09:00 +18°C° 0 mm 1 mps 555 mmHg 29%
    10:00 +21°C° 0 mm 1 mps 556 mmHg 23%
    11:00 +23°C° 0 mm 1 mps 557 mmHg 17%
    12:00 +23°C° 0 mm 2 mps 556 mmHg 17%
    13:00 +23°C° 0 mm 2 mps 556 mmHg 18%
    14:00 +24°C° 0 mm 2 mps 555 mmHg 18%
    15:00 +23°C° 0 mm 2 mps 555 mmHg 23%
    16:00 +20°C° 0 mm 3 mps 554 mmHg 29%
    17:00 +19°C° 0 mm 3 mps 553 mmHg 34%
    18:00 +17°C° 0 mm 2 mps 553 mmHg 40%
    19:00 +16°C° 0 mm 1 mps 553 mmHg 46%
    20:00 +14°C° 0 mm 1 mps 552 mmHg 52%
    21:00 +13°C° 0 mm 1 mps 552 mmHg 50%
    22:00 +13°C° 0 mm 1 mps 552 mmHg 48%
    23:00 +13°C° 0 mm 2 mps 552 mmHg 47%

    23 February, Saturday

    Time Temperature Precipitation Wind Pressure Humidity
    00:00 +12°C° 0 mm 2 mps 551 mmHg 49%
    01:00 +12°C° 0 mm 2 mps 551 mmHg 52%
    02:00 +10°C° 0 mm 2 mps 550 mmHg 55%
    03:00 +10°C° 0 mm 2 mps 551 mmHg 59%
    04:00 +9°C° 0 mm 2 mps 551 mmHg 63%
    05:00 +10°C° 0 mm 1 mps 551 mmHg 68%
    06:00 +11°C° 0 mm 1 mps 552 mmHg 64%
    07:00 +13°C° 0 mm 1 mps 553 mmHg 61%
    08:00 +14°C° 0 mm 1 mps 554 mmHg 57%
    09:00 +16°C° 0 mm 1 mps 555 mmHg 51%
    10:00 +19°C° 0 mm 1 mps 556 mmHg 45%
    11:00 +21°C° 0 mm 1 mps 557 mmHg 39%
    12:00 +20°C° 0 mm 1 mps 556 mmHg 40%
    13:00 +20°C° 0 mm 1 mps 555 mmHg 41%
    14:00 +18°C° 0 mm 2 mps 554 mmHg 43%
    15:00 +18°C° 0.2 mm 2 mps 554 mmHg 47%
    16:00 +17°C° 0.2 mm 2 mps 553 mmHg 51%
    17:00 +16°C° 0.2 mm 2 mps 553 mmHg 55%
    18:00 +16°C° 0.1 mm 2 mps 553 mmHg 58%
    19:00 +15°C° 0.1 mm 2 mps 553 mmHg 62%
    20:00 +14°C° 0.1 mm 1 mps 553 mmHg 65%
    21:00 +13°C° 0 mm 1 mps 553 mmHg 67%
    22:00 +12°C° 0 mm 1 mps 553 mmHg 70%
    23:00 +12°C° 0 mm 1 mps 552 mmHg 72%

    24 February, Sunday

    Time Temperature Precipitation Wind Pressure Humidity
    00:00 +11°C° 0 mm 1 mps 552 mmHg 75%
    01:00 +10°C° 0 mm 1 mps 551 mmHg 77%
    02:00 +10°C° 0 mm 1 mps 551 mmHg 80%
    03:00 +9°C° 0 mm 1 mps 551 mmHg 80%
    04:00 +9°C° 0 mm 1 mps 551 mmHg 81%
    05:00 +9°C° 0 mm 1 mps 551 mmHg 82%
    06:00 +10°C° 0 mm 1 mps 552 mmHg 75%
    07:00 +11°C° 0 mm 1 mps 553 mmHg 68%
    08:00 +13°C° 0 mm 2 mps 554 mmHg 60%
    09:00 +15°C° 0 mm 2 mps 555 mmHg 54%
    10:00 +17°C° 0 mm 2 mps 556 mmHg 48%
    11:00 +18°C° 0 mm 2 mps 556 mmHg 42%
    12:00 +19°C° 0 mm 3 mps 556 mmHg 41%
    13:00 +20°C° 0 mm 3 mps 556 mmHg 39%
    14:00 +20°C° 0 mm 3 mps 555 mmHg 38%
    15:00 +19°C° 0 mm 3 mps 555 mmHg 43%
    16:00 +18°C° 0 mm 3 mps 554 mmHg 48%
    17:00 +17°C° 0 mm 3 mps 553 mmHg 54%
    18:00 +16°C° 0 mm 2 mps 553 mmHg 58%
    19:00 +14°C° 0 mm 2 mps 553 mmHg 62%
    20:00 +13°C° 0 mm 1 mps 553 mmHg 66%
    21:00 +13°C° 0 mm 1 mps 553 mmHg 69%
    22:00 +12°C° 0 mm 1 mps 553 mmHg 71%
    23:00 +12°C° 0 mm 1 mps 552 mmHg 74%
    Show more